Tracking 30107 objects as of 18-Jan-2025
HD Live streaming from Space Station
objects crossing your sky now

LES 6

Track LES 6 now!
LES 6 is classified as:


NORAD ID: 3431
Int'l Code: 1968-081D
Perigee: 35,767.6 km
Apogee: 35,847.7 km
Inclination: 1.1 °
Period: 1,436.8 minutes
Semi major axis: 42178 km
RCS: 3.1622 m2 (large)
Launch date: September 26, 1968
Source: United States (US)
Launch site: AIR FORCE EASTERN TEST RANGE (AFETR)
Your satellite tracking list
Your tracking list is empty




NASA's NSSDC Master Catalog

Two Line Element Set (TLE):
1  3431U 68081D   25018.02321804 -.00000258  00000-0  00000+0 0  9995
2  3431   1.0686 351.2148 0009495 334.8328  90.3340  1.00222330115836
Source of the keplerian elements: AFSPC